TimePST,TemperatureF,Dew PointF,Humidity,Sea Level PressureIn,VisibilityMPH,Wind Direction,Wind SpeedMPH,Gust SpeedMPH,PrecipitationIn,Events,Conditions,WindDirDegrees,DateUTC
12:15 AM,23.0,17.6,80,30.14,10.0,Calm,Calm,-,N/A,,Clear,0,2012-12-08 08:15:00
12:35 AM,23.0,17.6,80,30.13,10.0,Calm,Calm,-,N/A,,Clear,0,2012-12-08 08:35:00
12:55 AM,23.0,17.6,80,30.13,10.0,NNE,3.5,-,N/A,,Clear,30,2012-12-08 08:55:00
1:15 AM,23.0,17.6,80,30.14,10.0,Calm,Calm,-,N/A,,Clear,0,2012-12-08 09:15:00
1:35 AM,23.0,17.6,80,30.14,10.0,South,3.5,-,N/A,,Clear,190,2012-12-08 09:35:00
1:55 AM,21.2,17.6,86,30.14,10.0,South,3.5,-,N/A,,Clear,190,2012-12-08 09:55:00
2:15 AM,23.0,17.6,80,30.14,10.0,Calm,Calm,-,N/A,,Clear,0,2012-12-08 10:15:00
2:35 AM,21.2,15.8,80,30.14,10.0,NNW,4.6,-,N/A,,Clear,340,2012-12-08 10:35:00
2:55 AM,21.2,17.6,86,30.13,10.0,NE,3.5,-,N/A,,Clear,50,2012-12-08 10:55:00
3:15 AM,19.4,15.8,86,30.13,10.0,Calm,Calm,-,N/A,,Clear,0,2012-12-08 11:15:00
3:35 AM,19.4,15.8,86,30.13,10.0,Calm,Calm,-,N/A,,Clear,0,2012-12-08 11:35:00
3:55 AM,21.2,15.8,80,30.13,10.0,Calm,Calm,-,N/A,,Clear,0,2012-12-08 11:55:00
4:15 AM,21.2,15.8,80,30.13,10.0,Calm,Calm,-,N/A,,Clear,0,2012-12-08 12:15:00
4:35 AM,21.2,17.6,86,30.14,10.0,Calm,Calm,-,N/A,,Clear,0,2012-12-08 12:35:00
4:55 AM,19.4,15.8,86,30.13,10.0,Calm,Calm,-,N/A,,Clear,0,2012-12-08 12:55:00
5:15 AM,19.4,15.8,86,30.13,10.0,Calm,Calm,-,N/A,,Clear,0,2012-12-08 13:15:00
5:35 AM,17.6,15.8,93,30.13,10.0,Calm,Calm,-,N/A,,Clear,0,2012-12-08 13:35:00
6:50 AM,17.6,15.8,93,30.13,10.0,Calm,Calm,-,N/A,,Clear,0,2012-12-08 14:50:00
7:45 AM,17.6,15.8,93,30.13,10.0,Calm,Calm,-,N/A,,Clear,0,2012-12-08 15:45:00
8:50 AM,24.8,19.4,80,30.15,10.0,Calm,Calm,-,N/A,,Clear,0,2012-12-08 16:50:00
9:50 AM,32.0,21.2,64,30.17,10.0,Calm,Calm,-,N/A,,Clear,0,2012-12-08 17:50:00
10:45 AM,35.6,21.2,56,30.16,10.0,Calm,Calm,-,N/A,,Clear,0,2012-12-08 18:45:00
11:50 AM,41.0,19.4,42,30.14,10.0,ESE,3.5,-,N/A,,Mostly Cloudy,120,2012-12-08 19:50:00
12:50 PM,44.6,17.6,34,30.11,10.0,Calm,Calm,-,N/A,,Mostly Cloudy,0,2012-12-08 20:50:00
1:50 PM,46.4,19.4,34,30.09,10.0,Calm,Calm,-,N/A,,Clear,0,2012-12-08 21:50:00
2:55 PM,46.4,19.4,34,30.09,10.0,NE,4.6,-,N/A,,Clear,50,2012-12-08 22:55:00
3:55 PM,44.6,23.0,43,30.09,10.0,NW,4.6,-,N/A,,Clear,320,2012-12-08 23:55:00
4:55 PM,33.8,24.8,70,30.10,10.0,South,3.5,-,N/A,,Clear,170,2012-12-09 00:55:00
5:15 PM,32.0,24.8,75,30.10,10.0,SSW,3.5,-,N/A,,Clear,200,2012-12-09 01:15:00
5:35 PM,32.0,24.8,75,30.11,10.0,SSE,3.5,-,N/A,,Clear,150,2012-12-09 01:35:00
5:55 PM,30.2,24.8,80,30.12,10.0,SSE,3.5,-,N/A,,Clear,160,2012-12-09 01:55:00
6:15 PM,30.2,24.8,80,30.12,10.0,Calm,Calm,-,N/A,,Clear,0,2012-12-09 02:15:00
6:35 PM,30.2,24.8,80,30.12,10.0,Calm,Calm,-,N/A,,Clear,0,2012-12-09 02:35:00
6:55 PM,30.2,24.8,80,30.13,10.0,Calm,Calm,-,N/A,,Clear,0,2012-12-09 02:55:00
7:15 PM,30.2,24.8,80,30.13,10.0,Calm,Calm,-,N/A,,Clear,0,2012-12-09 03:15:00
7:35 PM,28.4,24.8,86,30.13,10.0,East,3.5,-,N/A,,Clear,100,2012-12-09 03:35:00
7:55 PM,26.6,24.8,93,30.14,10.0,SSE,3.5,-,N/A,,Clear,160,2012-12-09 03:55:00
8:35 PM,26.6,24.8,93,30.14,10.0,Calm,Calm,-,N/A,,Clear,0,2012-12-09 04:35:00
8:55 PM,28.4,24.8,86,30.14,10.0,Calm,Calm,-,N/A,,Clear,0,2012-12-09 04:55:00
9:15 PM,26.6,23.0,86,30.15,10.0,Calm,Calm,-,N/A,,Clear,0,2012-12-09 05:15:00
9:35 PM,26.6,24.8,93,30.16,10.0,Calm,Calm,-,N/A,,Clear,0,2012-12-09 05:35:00
9:55 PM,26.6,24.8,93,30.17,10.0,Calm,Calm,-,N/A,,Clear,0,2012-12-09 05:55:00
10:15 PM,26.6,24.8,93,30.18,10.0,Calm,Calm,-,N/A,,Clear,0,2012-12-09 06:15:00
10:35 PM,24.8,23.0,93,30.18,10.0,South,3.5,-,N/A,,Clear,180,2012-12-09 06:35:00
10:55 PM,26.6,24.8,93,30.18,10.0,Calm,Calm,-,N/A,,Clear,0,2012-12-09 06:55:00
11:15 PM,26.6,23.0,86,30.18,10.0,Calm,Calm,-,N/A,,Clear,0,2012-12-09 07:15:00
11:35 PM,26.6,23.0,86,30.19,10.0,Calm,Calm,-,N/A,,Clear,0,2012-12-09 07:35:00
11:55 PM,26.6,24.8,93,30.19,10.0,Calm,Calm,-,N/A,,Clear,0,2012-12-09 07:55:00